Regional Weather Roundup
Issued by NWS

Home | Current Version | Previous Version | Text Only | Print | Product List | Glossary On
Versions: 1 2 3 4 5 6 7 8 9 10 11 12 13 14 15 16 17 18 19 20 21 22 23 24 25 26 27 28 29 30 31 32 33 34 35 36 37 38 39 40 41 42 43 44 45 46 47 48 49 50
000
ASUS44 KMEG 131810
RWRTN
TENNESSEE HOURLY STATE WEATHER ROUNDUP
NATIONAL WEATHER SERVICE MEMPHIS TN
1200 PM CST WED NOV 13 2019

TNZ002-004-019-021-049-052-054-088>092-131900-
WEST TENNESSEE

CITY           SKY/WX    TMP DP  RH WIND       PRES   REMARKS
MEMPHIS INTL   FAIR      36  13  38 E7        30.31F WCI  30
NWS MEMPHIS      N/A     36 N/A N/A MISG        N/A
JACKSON        FAIR      36  15  42 CALM      30.34F
DYERSBURG      FAIR      34  20  56 E9        30.34F WCI  27
SOMERVILLE     SUNNY     36  14  41 CALM      30.31F
UNION CITY     SUNNY     30  19  64 VRB7      30.31F WCI  23
BOLIVAR        SUNNY     36  16  44 CALM      30.32F
PARIS          SUNNY     32  18  55 CALM      30.32F
LEXINGTON      SUNNY     34  16  47 VRB3      30.33F
SELMER         SUNNY     34  14  44 CALM      30.31F
SAVANNAH       SUNNY     36  19  51 VRB3      30.33F
$$

TNZ008-025-027-028-033-062-065-066-131900-
NORTH MIDDLE TENNESSEE

CITY           SKY/WX    TMP DP  RH WIND       PRES   REMARKS
NASHVILLE      FAIR      39  18  42 W7        30.33F WCI  34
DICKSON        CLEAR     36  14  41 CALM      30.29F
PORTLAND       SUNNY     36  19  51 CALM      30.30F
CLARKSVILLE    FAIR      32  18  56 NW8       30.34F WCI  25
LEBANON        CLEAR     37  19  48 SW7       30.30F WCI  32
SMYRNA         FAIR      37  20  50 VRB3      30.33F
MURFREESBORO   CLEAR     37  19  48 SW6       30.30F WCI  33
COOKEVILLE     SUNNY     37  21  52 S6        30.27F WCI  33
LIVINGSTON     CLEAR     34  21  60 CALM      30.24F
GALLATIN       CLEAR     36  18  48 SW6       30.35F WCI  31
CROSSVILLE     FAIR      36  17  46 VRB5      30.25F WCI  32
ROCKWOOD       CLEAR     32  19  59 VRB6      30.27F WCI  26
$$

TNZ061-075-076-078-094-096-097-131900-
SOUTH MIDDLE TENNESSEE

CITY           SKY/WX    TMP DP  RH WIND       PRES   REMARKS
LAWRENCEBURG   CLEAR     37  21  52 VRB7      30.30F WCI  32
LEWISBURG      CLEAR     39  19  45 VRB3      30.30F
FAYETTEVILLE   SUNNY     37  23  56 S7        30.29F WCI  32
TULLAHOMA      SUNNY     39  21  48 VRB5G12   30.27F
WINCHESTER     SUNNY     39  19  45 CALM      30.28F
MCMINNVILLE    SUNNY     39  21  48 VRB6      30.28F WCI  35
COLUMBIA       SUNNY     37  16  41 CALM      30.30F
SHELBYVILLE    SUNNY     39  23  52 SW10      30.30F WCI  32
$$

TNZ017-018-042-046-047-131900-
NORTHEAST TENNESSEE

CITY           SKY/WX    TMP DP  RH WIND       PRES   REMARKS
TRI CITIES     FAIR      34  19  54 CALM      30.28F
ELIZABETHTON   FAIR      41  19  42 CALM      30.25F
GREENEVILLE    CLEAR     32  19  59 CALM      30.27S
$$

TNZ012-013-036-069-073-074-131900-
CENTRAL EAST TENNESSEE

CITY           SKY/WX    TMP DP  RH WIND       PRES   REMARKS
KNOXVILLE      FAIR      34  23  64 VRB3      30.32F
OAK RIDGE      FAIR      35  19  52 E3        30.33F
DOWNTOWN KNOXV SUNNY     34  23  64 CALM      30.34F
GATLINBURG     SUNNY     32  21  64 CALM      30.32F
MORRISTOWN     SUNNY     34  23  64 S5        30.29S WCI  30
JACKSBORO      SUNNY     36  19  51 CALM      30.33F
$$

TNZ083-085-099-131900-
SOUTHEAST TENNESSEE

CITY           SKY/WX    TMP DP  RH WIND       PRES   REMARKS
CHATTANOOGA    FAIR      40  22  48 VRB3      30.32F
DAYTON         CLEAR     37  21  52 W6        30.32F WCI  33
$$

SKY/WX REPORTED AS FAIR MEANS FEW OR NO CLOUDS BELOW
12 THOUSAND FEET.




USA.gov is the U.S. government's official web portal to all federal, state and local government web resources and services.